Location: Dalton
(42.4737°N, 73.1662°W)
Time: 15:39:00
(UTC+00:00)

Envisat - Pass Details

Date: 21 September 2024
Orbit: 762 x 764 km, 98.3° (Epoch: 09 October)

Event Time Altitude Azimuth Distance (km) Brightness Sun altitude
Rises 08:40:55 0° 6° (N) 3,235 6.6 -22.1°
Reaches altitude 10° 08:43:18 10° 360° (N) 2,305 5.7 -21.7°
Maximum altitude 08:48:04 43° 290° (WNW) 1,068 3.4 -20.9°
Enters shadow 08:48:31 42° 276° (W) 1,084 3.3 -20.8°
